Year,Month,Day,Hour,Minute,Value (Times are PST for temperature in C)
2014,09,24,09,12,16.30
2014,09,24,09,13,16.30
2014,09,24,09,14,16.30
2014,09,24,09,15,16.30
2014,09,24,09,16,16.20
2014,09,24,09,17,16.20
2014,09,24,09,18,16.20
2014,09,24,09,19,16.20
2014,09,24,09,20,16.20
2014,09,24,09,21,16.10
2014,09,24,09,22,16.10
2014,09,24,09,23,16.10
2014,09,24,09,24,16.10
2014,09,24,09,25,16.10
2014,09,24,09,26,16.10
2014,09,24,09,27,16.10
2014,09,24,09,28,16.10
2014,09,24,09,29,16.10
2014,09,24,09,30,16.10
2014,09,24,09,31,16.10
2014,09,24,09,32,16.10
2014,09,24,09,33,16.10
2014,09,24,09,34,16.10
2014,09,24,09,35,16.10
2014,09,24,09,36,16.20
2014,09,24,09,37,16.20
2014,09,24,09,38,16.20
2014,09,24,09,39,16.20
2014,09,24,09,40,16.20
2014,09,24,09,41,16.20
2014,09,24,09,42,16.20
2014,09,24,09,43,16.20
2014,09,24,09,44,16.30
2014,09,24,09,45,16.30
2014,09,24,09,46,16.40
2014,09,24,09,47,16.40
2014,09,24,09,48,16.40
2014,09,24,09,49,16.40
2014,09,24,09,50,16.60
2014,09,24,09,51,16.60
2014,09,24,09,52,16.60
2014,09,24,09,53,16.60
2014,09,24,09,54,16.70
2014,09,24,09,55,16.70
2014,09,24,09,56,16.70
2014,09,24,09,57,16.70
2014,09,24,09,58,16.70
2014,09,24,09,59,16.70
2014,09,24,10,00,16.70
2014,09,24,10,01,16.70
2014,09,24,10,02,16.70
2014,09,24,10,03,16.70
2014,09,24,10,04,16.70
2014,09,24,10,05,16.70
2014,09,24,10,06,16.70
2014,09,24,10,07,16.70
2014,09,24,10,08,16.70
2014,09,24,10,09,16.70
2014,09,24,10,10,16.70
2014,09,24,10,11,16.70
2014,09,24,10,12,16.70
2014,09,24,10,13,16.70
2014,09,24,10,14,16.70
2014,09,24,10,15,16.70
2014,09,24,10,16,16.70
2014,09,24,10,17,16.70
2014,09,24,10,18,16.80
2014,09,24,10,19,16.80
2014,09,24,10,20,16.80
2014,09,24,10,21,16.80
2014,09,24,10,22,16.90
2014,09,24,10,23,16.90
2014,09,24,10,24,16.90
2014,09,24,10,25,16.90
2014,09,24,10,26,16.90
2014,09,24,10,27,16.90
2014,09,24,10,28,16.90
2014,09,24,10,29,16.90
2014,09,24,10,30,16.90
2014,09,24,10,31,16.90
2014,09,24,10,32,16.90
2014,09,24,10,33,16.90
2014,09,24,10,34,16.90
2014,09,24,10,35,16.90
2014,09,24,10,36,16.80
2014,09,24,10,37,16.80
2014,09,24,10,38,16.70
2014,09,24,10,39,16.70
2014,09,24,10,40,16.70
2014,09,24,10,41,16.70
2014,09,24,10,42,16.70
2014,09,24,10,43,16.70
2014,09,24,10,44,16.60
2014,09,24,10,45,16.60
2014,09,24,10,46,16.60
2014,09,24,10,47,16.60
2014,09,24,10,48,16.40
2014,09,24,10,49,16.40
2014,09,24,10,50,16.40
2014,09,24,10,51,16.40
2014,09,24,10,52,16.40
2014,09,24,10,53,16.40
2014,09,24,10,54,16.40
2014,09,24,10,55,16.30
2014,09,24,10,56,16.30
2014,09,24,10,57,16.30
2014,09,24,10,58,16.30
2014,09,24,10,59,16.30
2014,09,24,11,00,16.30
2014,09,24,11,01,16.30
2014,09,24,11,02,16.30
2014,09,24,11,03,16.30
2014,09,24,11,04,16.30
2014,09,24,11,05,15.90
2014,09,24,11,06,15.80
2014,09,24,11,07,15.80
2014,09,24,11,08,15.80
2014,09,24,11,09,15.80
2014,09,24,11,10,15.80
2014,09,24,11,11,15.80
2014,09,24,11,12,15.80
2014,09,24,11,13,15.80
2014,09,24,11,14,15.80
2014,09,24,11,15,15.80
2014,09,24,11,16,15.80
2014,09,24,11,17,15.80
2014,09,24,11,18,15.80
2014,09,24,11,19,15.80
2014,09,24,11,20,15.80
2014,09,24,11,21,15.80
2014,09,24,11,37,15.50
2014,09,24,11,38,15.50
2014,09,24,11,39,15.50
2014,09,24,11,40,15.60
2014,09,24,11,41,15.60
2014,09,24,11,42,15.60
2014,09,24,11,43,15.60
2014,09,24,11,44,15.70
2014,09,24,11,45,15.70
2014,09,24,11,46,15.70
2014,09,24,11,47,15.70
2014,09,24,11,48,15.80
2014,09,24,11,49,15.80
2014,09,24,11,50,15.80
2014,09,24,11,51,15.80
2014,09,24,11,52,15.80
2014,09,24,11,53,15.80
2014,09,24,11,54,15.80
2014,09,24,11,55,15.80
2014,09,24,11,56,15.80
2014,09,24,11,57,15.80
2014,09,24,11,58,15.80
2014,09,24,11,59,15.80
2014,09,24,12,00,15.80
2014,09,24,12,01,15.80
2014,09,24,12,02,15.80
2014,09,24,12,03,15.90
2014,09,24,12,04,15.90
2014,09,24,12,05,15.90
2014,09,24,12,06,16.10
2014,09,24,12,07,16.10
2014,09,24,12,08,16.10
2014,09,24,12,09,16.10
2014,09,24,12,10,16.20
2014,09,24,12,11,16.30
2014,09,24,12,12,16.30
2014,09,24,12,13,16.30
2014,09,24,12,14,16.30
2014,09,24,12,15,16.30
2014,09,24,12,16,16.40
2014,09,24,12,17,16.40
2014,09,24,12,18,16.40
2014,09,24,12,19,16.40
2014,09,24,12,20,16.60
2014,09,24,12,21,16.60
2014,09,24,12,22,16.60
2014,09,24,12,23,16.60
2014,09,24,12,24,16.60
2014,09,24,12,25,16.60
2014,09,24,12,26,16.60
2014,09,24,12,27,16.70
2014,09,24,12,28,16.70
2014,09,24,12,29,16.70
2014,09,24,12,30,16.70
2014,09,24,12,31,16.70
2014,09,24,12,32,16.70
2014,09,24,12,33,16.70
2014,09,24,12,34,16.70
2014,09,24,12,35,16.70
2014,09,24,12,36,16.70
2014,09,24,12,37,16.60
2014,09,24,12,38,16.60
2014,09,24,12,39,16.40
2014,09,24,12,40,16.40
2014,09,24,12,41,16.40
2014,09,24,12,42,16.30
2014,09,24,12,43,16.30
2014,09,24,12,44,16.30
2014,09,24,12,45,16.20
2014,09,24,12,46,16.20
2014,09,24,12,47,16.20
2014,09,24,12,48,16.20
2014,09,24,12,49,16.20
2014,09,24,12,50,15.90
2014,09,24,12,51,15.80
2014,09,24,12,52,15.80
2014,09,24,12,53,15.80
2014,09,24,12,54,15.80
2014,09,24,12,55,15.80
2014,09,24,12,56,15.80
2014,09,24,12,57,15.80
2014,09,24,12,58,15.80
2014,09,24,12,59,15.80
2014,09,24,13,00,15.80
2014,09,24,13,01,15.80
2014,09,24,13,02,15.80
2014,09,24,13,03,15.80
2014,09,24,13,04,15.90
2014,09,24,13,05,15.90
2014,09,24,13,06,15.90
2014,09,24,13,07,15.90
2014,09,24,13,08,16.10
2014,09,24,13,09,16.10
2014,09,24,13,10,16.10
2014,09,24,13,11,16.10
2014,09,24,13,12,16.10
2014,09,24,13,13,16.10
2014,09,24,13,14,16.10
2014,09,24,13,15,16.10
2014,09,24,13,16,16.10
2014,09,24,13,17,16.10
2014,09,24,13,18,16.10
2014,09,24,13,19,16.10
2014,09,24,13,20,16.10
2014,09,24,13,21,16.10
2014,09,24,13,22,16.10
2014,09,24,13,23,16.10
2014,09,24,13,24,16.10
2014,09,24,13,25,16.10
2014,09,24,13,26,16.10
2014,09,24,13,27,16.10
2014,09,24,13,28,16.20
2014,09,24,13,29,16.20
2014,09,24,13,30,16.30
2014,09,24,13,31,16.30
2014,09,24,13,32,16.40
2014,09,24,13,33,16.40
2014,09,24,13,34,16.60
2014,09,24,13,35,16.70
2014,09,24,13,36,16.70
2014,09,24,13,37,16.70
2014,09,24,13,38,16.80
2014,09,24,13,39,16.80
2014,09,24,13,40,16.90
2014,09,24,13,41,16.90
2014,09,24,13,42,16.90
2014,09,24,13,43,16.90
2014,09,24,13,44,17.00
2014,09,24,13,45,17.00
2014,09,24,13,46,17.00
2014,09,24,13,47,17.10
2014,09,24,13,48,17.10
2014,09,24,13,49,17.10
2014,09,24,13,50,17.10
2014,09,24,13,51,17.10
2014,09,24,13,52,17.10
2014,09,24,13,53,17.10
2014,09,24,13,54,17.10
2014,09,24,13,55,17.20
2014,09,24,13,56,17.20
2014,09,24,13,57,17.20
2014,09,24,13,58,17.30
2014,09,24,13,59,17.20
2014,09,24,14,00,17.20
2014,09,24,14,01,17.20
2014,09,24,14,02,17.10
2014,09,24,14,03,17.00
2014,09,24,14,04,17.00
2014,09,24,14,05,16.90
2014,09,24,14,06,16.90
2014,09,24,14,07,16.80
2014,09,24,14,08,16.80
2014,09,24,14,09,16.70
2014,09,24,14,10,16.70
2014,09,24,14,11,16.70
2014,09,24,14,12,16.60
2014,09,24,14,13,16.60
2014,09,24,14,14,16.40
2014,09,24,14,15,16.40
2014,09,24,14,16,16.40
2014,09,24,14,17,16.30
2014,09,24,14,18,16.30
2014,09,24,14,19,16.30
2014,09,24,14,20,16.30
2014,09,24,14,21,16.30
2014,09,24,14,22,16.30
2014,09,24,14,23,16.20
2014,09,24,14,24,16.20
2014,09,24,14,25,16.20
2014,09,24,14,26,16.10
2014,09,24,14,27,16.10
2014,09,24,14,28,16.10
2014,09,24,14,29,16.10
2014,09,24,14,30,16.10
2014,09,24,14,31,16.10
2014,09,24,14,32,16.10
2014,09,24,14,33,16.10
2014,09,24,14,34,16.10
2014,09,24,14,35,16.10
2014,09,24,14,36,16.10
2014,09,24,14,37,16.10
2014,09,24,14,38,16.20
2014,09,24,14,39,16.20
2014,09,24,14,40,16.30
2014,09,24,14,41,16.30
2014,09,24,14,42,16.40
2014,09,24,14,43,16.40
2014,09,24,14,44,16.40
2014,09,24,14,45,16.60
2014,09,24,14,46,16.70
2014,09,24,14,47,16.70
2014,09,24,14,48,16.70
2014,09,24,14,49,16.70
2014,09,24,14,50,16.70
2014,09,24,14,51,16.70
2014,09,24,14,52,16.70
2014,09,24,14,53,16.70
2014,09,24,14,54,16.60
2014,09,24,14,55,16.70
2014,09,24,14,56,16.70
2014,09,24,14,57,16.70
2014,09,24,14,58,16.70
2014,09,24,14,59,16.70
2014,09,24,15,00,16.70
2014,09,24,15,01,16.70
2014,09,24,15,02,16.70
2014,09,24,15,03,16.70
2014,09,24,15,04,16.70
2014,09,24,15,05,16.70
2014,09,24,15,06,16.80
2014,09,24,15,07,16.80
2014,09,24,15,08,16.80
2014,09,24,15,09,16.80
2014,09,24,15,10,16.80
2014,09,24,15,11,16.80
2014,09,24,15,12,16.80
2014,09,24,15,13,16.80
2014,09,24,15,14,16.70
2014,09,24,15,15,16.70
2014,09,24,15,16,16.70
2014,09,24,15,17,16.70
2014,09,24,15,18,16.70
2014,09,24,15,19,16.60
2014,09,24,15,20,16.60
2014,09,24,15,21,16.40
2014,09,24,15,22,16.40
2014,09,24,15,23,16.40
2014,09,24,15,24,16.30
2014,09,24,15,25,16.20
2014,09,24,15,26,16.10
2014,09,24,15,27,16.10
2014,09,24,15,28,15.90
2014,09,24,15,29,15.90
2014,09,24,15,30,15.80
2014,09,24,15,31,15.80
2014,09,24,15,32,15.80
2014,09,24,15,33,15.80
2014,09,24,15,34,15.80
2014,09,24,15,35,15.80
2014,09,24,15,36,15.80
2014,09,24,15,37,15.80
2014,09,24,15,38,15.80
2014,09,24,15,39,15.80
2014,09,24,15,40,15.90
2014,09,24,15,41,15.90
2014,09,24,15,42,15.90
2014,09,24,15,43,15.90
2014,09,24,15,44,16.10
2014,09,24,15,45,16.10
2014,09,24,15,46,16.10
2014,09,24,15,47,16.10
2014,09,24,15,48,16.10
2014,09,24,15,49,16.10
2014,09,24,15,50,16.20
2014,09,24,15,51,16.20
2014,09,24,15,52,16.20
2014,09,24,15,53,16.30
2014,09,24,15,54,16.30
2014,09,24,15,55,16.30
2014,09,24,15,56,16.30
2014,09,24,15,57,16.30
2014,09,24,15,58,16.30
2014,09,24,15,59,16.30
2014,09,24,16,00,16.30
2014,09,24,16,01,16.30
2014,09,24,16,02,16.30
2014,09,24,16,03,16.30
2014,09,24,16,04,16.30
2014,09,24,16,20,16.20
2014,09,24,16,21,16.20
2014,09,24,16,22,16.20
2014,09,24,16,23,16.30
2014,09,24,16,24,16.30
2014,09,24,16,25,16.30
2014,09,24,16,26,16.30
2014,09,24,16,27,16.30
2014,09,24,16,28,16.30
2014,09,24,16,29,16.30
2014,09,24,16,30,16.40
2014,09,24,16,31,16.40
2014,09,24,16,32,16.40
2014,09,24,16,33,16.60
2014,09,24,16,34,16.60
2014,09,24,16,35,16.70
2014,09,24,16,36,16.70
2014,09,24,16,37,16.70
2014,09,24,16,38,16.70
2014,09,24,16,39,16.80
2014,09,24,16,40,16.80
2014,09,24,16,41,16.80
2014,09,24,16,42,16.90
2014,09,24,16,43,16.90
2014,09,24,16,44,16.90
2014,09,24,16,45,16.90
2014,09,24,16,46,16.80
2014,09,24,16,47,16.80
2014,09,24,16,48,16.80
2014,09,24,16,49,16.80
2014,09,24,16,50,16.80
2014,09,24,16,51,16.70
2014,09,24,16,52,16.70
2014,09,24,16,53,16.70
2014,09,24,16,54,16.70
2014,09,24,16,55,16.70
2014,09,24,16,56,16.70
2014,09,24,16,57,16.70
2014,09,24,16,58,16.70
2014,09,24,16,59,16.60
2014,09,24,17,00,16.60
2014,09,24,17,01,16.60
2014,09,24,17,02,16.40
2014,09,24,17,03,16.40
2014,09,24,17,04,16.40
2014,09,24,17,05,16.40
2014,09,24,17,06,16.40
2014,09,24,17,07,16.40
2014,09,24,17,08,16.40
2014,09,24,17,09,16.40
2014,09,24,17,10,16.40
2014,09,24,17,11,16.40
2014,09,24,17,12,16.40
2014,09,24,17,13,16.40
2014,09,24,17,14,16.40
2014,09,24,17,15,16.40
2014,09,24,17,16,16.40
2014,09,24,17,17,16.40
